Hourly Data Report for October 13, 2014

All times are specified in Local Standard Time (LST). Add 1 hour to adjust for Daylight Saving Time where and when it is observed.

OTTAWA INTL A
ONTARIO

45°19'00.000" N
75°40'00.000" W
114.90 m
6106001
71628
YOW

Download Data

Hourly Data (October 2014)
Hourly Data Report for October 13, 2014
Temp Definition
°C
Dew Point Temp Definition
°C
Rel Hum Definition
%
Wind Dir Definition
10's deg

Wind Spd Definition
km/h
Visibility Definition
km
Stn Press Definition
kPa
Hmdx Definition


Wind Chill Definition


Weather Definition


TIME
00:00 Legend Double Dagger 4.7 1.0 77 13 10 24.1 100.94     LegendNANA
01:00 Legend Double Dagger 3.4 0.6 82 15 12 24.1 100.92     Clear
02:00 Legend Double Dagger 3.6 0.3 79 6 5 24.1 100.87     LegendNANA
03:00 Legend Double Dagger 1.1 0.2 94 6 10 24.1 100.87     LegendNANA
04:00 Legend Double Dagger 0.8 0.2 96 7 10 24.1 100.86     Clear
05:00 Legend Double Dagger 0.6 -0.3 94 7 8 24.1 100.87     LegendNANA
06:00 Legend Double Dagger 1.1 0.4 95 7 9 24.1 100.87     LegendNANA
07:00 Legend Double Dagger 1.8 0.6 92 6 8 24.1 100.89     Clear
08:00 Legend Double Dagger 4.9 2.6 85 7 9 24.1 100.90     LegendNANA
09:00 Legend Double Dagger 9.3 4.1 70 17 9 24.1 100.86     LegendNANA
10:00 Legend Double Dagger 12.2 5.6 64 13 8 24.1 100.80     Mainly Clear
11:00 Legend Double Dagger 14.1 6.3 59 16 5 24.1 100.76     LegendNANA
12:00 Legend Double Dagger 16.1 7.4 56 16 15 24.1 100.70     LegendNANA
13:00 Legend Double Dagger 16.9 8.7 58 19 12 24.1 100.62     Cloudy
14:00 Legend Double Dagger 16.4 9.4 63 17 12 24.1 100.61     LegendNANA
15:00 Legend Double Dagger 16.4 10.1 66 17 17 24.1 100.58     LegendNANA
16:00 Legend Double Dagger 15.9 10.3 69 16 8 24.1 100.60     Cloudy
17:00 Legend Double Dagger 15.2 10.9 75 12 8 24.1 100.56     LegendNANA
18:00 Legend Double Dagger 15.0 10.9 76 14 8 24.1 100.57     LegendNANA
19:00 Legend Double Dagger 13.9 12.0 88 10 9 24.1 100.54     Rain
20:00 Legend Double Dagger 14.3 11.5 83 11 12 24.1 100.50     LegendNANA
21:00 Legend Double Dagger 14.3 11.7 84 12 10 24.1 100.50     LegendNANA
22:00 Legend Double Dagger 14.4 11.8 84 13 12 24.1 100.46     Cloudy
23:00 Legend Double Dagger 14.7 12.1 84 15 12 24.1 100.46     LegendNANA

Notes on Data Quality.

Legend

  • E = Estimated
  • M = Missing
  • NA = Not Available
  • ‡ = Partner data that is not subject to review by the National Climate Archives
Date modified: